Notices

What's New in latest Release from April 7th, 2021:

- Updated Glossary, including Speed of Maximum Gust, and Total Hourly Precipitation

- Updated national and regional climate services offices contacts and prices information

- Addition of station inventory lists for 1981-2010, 1971-2000, and 1961-1990 Normals.

If you haven't already, please take our survey and provide feedback about our website: https://eccc.sondage-survey.ca/f/LanguageSelection.aspx?s=442ca660-fcf1-47c0-95a9-59707d6fd709

Hourly Data Report for August 25, 2016

TORONTO CITY
ONTARIO

43°40'00.000" N
79°24'00.000" W
112.50 m
6158355
71508
XTO

Download Data

Hourly Data (August 2016)
Hourly Data Report for August 25, 2016
TIME
LST
Temp Definition
°C
Dew Point Definition
°C
Rel Hum Definition
%
Precip. Amount Definition
mm

Wind Dir Definition
10's deg

Wind Spd Definition
km/h
Visibility Definition
km
Stn Press Definition
kPa
Hmdx Definition


Wind Chill Definition


Weather Definition


00:00 24.5 18.0 67 0.0 LegendMM LegendMM   100.03 31   LegendNANA
01:00 24.2 18.5 71 0.0 LegendMM LegendMM   99.99 31   LegendNANA
02:00 21.9 20.5 91 4.5 LegendMM LegendMM   99.93 30   LegendNANA
03:00 21.6 20.0 91 0.2 LegendMM LegendMM   99.91 29   LegendNANA
04:00 21.5 20.2 92 0.0 LegendMM LegendMM   99.89 29   LegendNANA
05:00 21.9 20.5 92 0.0 LegendMM LegendMM   99.95 30   LegendNANA
06:00 22.2 20.9 92 0.0 LegendMM LegendMM   99.99 31   LegendNANA
07:00 22.7 21.2 92 0.0 LegendMM LegendMM   99.97 31   LegendNANA
08:00 23.7 21.1 85 0.0 LegendMM LegendMM   99.97 32   LegendNANA
09:00 24.8 20.7 78 0.0 LegendMM LegendMM   100.01 33   LegendNANA
10:00 28.2 21.3 66 0.0 LegendMM LegendMM   100.02 37   LegendNANA
11:00 29.1 18.8 54 0.0 LegendMM LegendMM   100.02 36   LegendNANA
12:00 29.9 18.1 49 0.0 LegendMM LegendMM   99.98 36   LegendNANA
13:00 30.6 16.4 42 0.0 LegendMM LegendMM   99.97 35   LegendNANA
14:00 28.4 20.0 61 0.0 LegendMM LegendMM   99.94 36   LegendNANA
15:00 28.4 20.3 62 0.0 LegendMM LegendMM   99.92 36   LegendNANA
16:00 25.8 21.3 76 0.0 LegendMM LegendMM   99.98 34   LegendNANA
17:00 22.5 20.5 89 2.2 LegendMM LegendMM   100.05 30   LegendNANA
18:00 22.3 20.9 92 5.5 LegendMM LegendMM   100.03 31   LegendNANA
19:00 22.3 20.9 92 0.0 LegendMM LegendMM   99.93 31   LegendNANA
20:00 22.0 20.5 91 0.0 LegendMM LegendMM   99.90 30   LegendNANA
21:00 22.5 21.1 92 0.0 LegendMM LegendMM   99.95 31   LegendNANA
22:00 22.8 21.5 92 0.0 LegendMM LegendMM   99.96 32   LegendNANA
23:00 22.7 21.4 92 0.0 LegendMM LegendMM   99.98 31   LegendNANA

Notes on Data Quality.

Legend

  • E = Estimated
  • M = Missing
  • NA = Not Available*
  • [empty] = Indicates an unobserved value
Date modified: